カーンズ-クェー彗星

59P/Kearns-Kwee (2018)

English version
Home page
Updated on April 4, 2021

---------------------------------------------------------------------

・ プロフィール

・ 写真集

・ 軌道要素

Epoch 2018 Aug. 30.0 TT = JDT 2458360.5                                         
T 2018 Sept. 16.77571 TT                                Rudenko                 
q   2.3587145            (2000.0)            P               Q                  
n   0.10341931     Peri.  127.70161     +0.15684460     -0.98042600             
a   4.4950545      Node   312.82810     +0.84736336     +0.19549102             
e   0.4752645      Incl.    9.33923     +0.50732151     -0.02341198             
P   9.53                                                                        
From 1574 observations 1972 Sept. 4-2019 Apr. 8, mean residual 1".1.            
     Nongravitational parameters A1 = -2.72, A2 = -2.9726.                      

・ 星図

・ 光度変化

        m1 = 11.0 + 5 logΔ + 12.0 log r

---------------------------------------------------------------------

軌道要素はM.P.E.C. 2021-F20に掲載されたものです。
星図はステラナビゲータ Ver.10 (アストロアーツ) で作成したものです。
光度グラフはComet for Windowsで作成したものです。

---------------------------------------------------------------------

Copyright(C) Seiichi Yoshida (comet@aerith.net). All rights reserved.